Weather History for Upington, South Africa

Change the Weather History Date:

Saturday, September 29, 2012

  Actual Average Record
Temperature  
Mean Temperature 53 °F -  
Max Temperature 72 °F 85 °F 100 °F (2000)
Min Temperature 34 °F 56 °F 34 °F (2012)
Degree Days  
Heating Degree Days 12    
Growing Degree Days 3 (Base 50)    
Moisture  
Dew Point 25 °F    
Average Humidity 38    
Maximum Humidity 81    
Minimum Humidity 5    
Precipitation  
Precipitation 0.00 in 0.00 in - ()
Sea Level Pressure  
Sea Level Pressure 30.24 in    
Wind  
Wind Speed 4 mph ()    
Max Wind Speed 7 mph    
Max Gust Speed -    
Averages and records for this station are not official NWS values.
T = Trace of Precipitation, MM = Missing Value Source: Averaged Metar Reports

Daily Weather History Graph

Daily Weather History Graph

Search for Another Location

Airport:

Trip Planner

Search our weather history database for the weather conditions in past years. The results will help you decide how hot, cold, wet, or windy it might be!

Date:

Astronomy

Sep. 29, 2012 Rise Set
Actual Time 6:15 AM SAST 6:34 PM SAST
Civil Twilight 5:52 AM SAST 6:58 PM SAST
Nautical Twilight 5:24 AM SAST 7:26 PM SAST
Astronomical Twilight 4:57 AM SAST 7:53 PM SAST
Moon 6:08 PM SAST (9/29) 5:30 AM SAST (9/29)
Length of Visible Light 13h 06m
Length of Day
12h 18m
Waxing Gibbous, 99% of the Moon is Illuminated
Sep 29
Waxing Gibbous
Sep 30
Full
Oct 8
Last Quarter
Oct 15
New
Oct 22
First Quarter

Hourly Weather History & Observations

Time (SAST) Temp. Windchill Dew Point Humidity Pressure Visibility Wind Dir Wind Speed Gust Speed Precip Events Conditions
12:00 AM 44.6 °F 43.1 °F 32.0 °F 61% 30.27 in - SW 3.5 mph - N/A   Unknown
1:00 AM 41.0 °F 39.0 °F 28.4 °F 61% 30.27 in - West 3.5 mph - N/A   Unknown
2:00 AM 38 °F - 28 °F 58%  in - North 6.9 mph - -  
2:00 AM 37.4 °F 32.1 °F 28.4 °F 70% 30.27 in - North 6.9 mph - N/A   Unknown
3:00 AM 37.4 °F - 30.2 °F 75% 30.24 in - South 2.3 mph - N/A   Unknown
4:00 AM 41.0 °F - 30.2 °F 65% 30.21 in - Calm Calm - N/A   Unknown
5:00 AM 36 °F - 28 °F 62%  in 25 mi WSW 4.6 mph - -  
5:00 AM 35.6 °F 32.8 °F 28.4 °F 75% 30.24 in - WSW 3.5 mph - N/A   Clear
6:00 AM 33.8 °F 30.8 °F 28.4 °F 81% 30.27 in - West 3.5 mph - N/A   Clear
7:00 AM 37.4 °F - 30.2 °F 75% 30.27 in - NE 2.3 mph - N/A   Clear
8:00 AM 46 °F - 32 °F 47%  in 25 mi SE 3.5 mph - -   Clear
8:00 AM 44.6 °F 43.1 °F 32.0 °F 61% 30.30 in - SE 3.5 mph - N/A   Clear
9:00 AM 48.2 °F - 32.0 °F 54% 30.30 in - SSE 6.9 mph - N/A   Clear
9:39 AM 51.8 °F - 30.2 °F 44% 30.30 in - South 3.5 mph - N/A   Clear
10:00 AM 53.6 °F - 30.2 °F 41% 30.30 in - South 3.5 mph - N/A   Clear
11:00 AM 59 °F - 28 °F 19%  in 25 mi South 6.9 mph - -   Clear
11:00 AM 59.0 °F - 28.4 °F 31% 30.27 in - South 5.8 mph - N/A   Clear
12:00 PM 60.8 °F - 26.6 °F 27% 30.24 in - SW 5.8 mph - N/A   Clear
1:00 PM 62.6 °F - 23.0 °F 22% 30.24 in - SSW 5.8 mph - N/A   Clear
1:38 PM 66.2 °F - 24.8 °F 21% 30.21 in - SSW 4.6 mph - N/A   Clear
2:00 PM 67 °F - 24 °F 10%  in 25 mi SSE 3.5 mph - -   Clear
2:00 PM 66.2 °F - 24.8 °F 21% 30.21 in - SSE 2.3 mph - N/A   Clear
2:41 PM 69.8 °F - 19.4 °F 15% 30.18 in - WNW 4.6 mph - N/A   Clear
3:00 PM 68.0 °F - 19.4 °F 16% 30.18 in - SSW 6.9 mph - N/A   Clear
4:00 PM 69.8 °F - 19.4 °F 15% 30.18 in - WSW 5.8 mph - N/A   Clear
5:00 PM 71 °F - 17 °F 5%  in 25 mi SW 5.8 mph - -   Clear
5:00 PM 69.8 °F - 17.6 °F 14% 30.15 in - SW 4.6 mph - N/A   Clear
6:00 PM 69.8 °F - 17.6 °F 14% 30.18 in - South 3.5 mph - N/A   Clear
7:00 PM 59.0 °F - 19.4 °F 22% 30.18 in - SSW 5.8 mph - N/A   Clear
8:00 PM 58 °F - 20 °F 13%  in 25 mi South 5.8 mph - -   Clear
8:00 PM 57.2 °F - 21.2 °F 25% 30.21 in - South 5.8 mph - N/A   Clear
9:00 PM 57.2 °F - 21.2 °F 25% 30.24 in - SW 3.5 mph - N/A   Unknown
10:00 PM 50.0 °F - 19.4 °F 30% 30.24 in - West 4.6 mph - N/A   Unknown
11:00 PM 48 °F - 18 °F 18%  in - NNW 2.3 mph - -  
11:00 PM 46.4 °F - 19.4 °F 34% 30.24 in - NNW 2.3 mph - N/A   Unknown